SCP
0 -0 -1 -0 -0 -0 0 -0 -0 -1 -1 -0 -0 -0 0 0 -0 0 0 0 0 0 0 0 0 1 0 0 0 0 0 0 -0
0 0 -0 -0 -0 -0 -0 -0 -0 -1 -1 -0 -0 -0 -0 0 -0 -0 0 -0 0 0 0 0 1 1 0 0 0 0 0 0 0
0 0 -0 -0 -0 -0 -0 -0 0 -1 -1 -0 -0 -0 -0 0 0 -0 -0 0 0 -0 0 0 0 0 0 0 0 0 0 0 0
-0 0 0 0 -0 -0 -0 0 -0 -0 -0 -0 0 0 0 0 0 -0 0 0 0 0 -0 0 1 1 1 0 0 1 1 0 -0
0 0 0 0 -0 -1 -0 0 0 0 -0 -0 0 0 1 0 0 0 0 0 0 -0 0 0 0 0 0 1 1 1 0 1 0
0 0 0 0 -1 -1 -1 -0 0 0 0 0 0 0 0 1 0 0 0 0 0 0 0 0 0 0 0 0 0 0 1 1 0
0 0 0 0 -0 -1 -0 -0 0 0 0 -0 0 0 0 1 1 0 0 0 0 0 1 0 0 0 0 0 0 0 1 1 1
0 0 -0 -0 -0 -1 -1 -1 -1 -0 -0 -0 -0 0 1 2 1 0 0 -0 -0 0 1 1 1 1 0 0 0 0 1 1 1
0 0 -0 -0 -0 -1 -2 -2 -1 -0 -0 -0 -0 0 0 1 1 0 0 0 0 0 0 1 0 1 0 0 0 0 0 0 0
0 0 0 -0 -0 -1 -1 -1 -1 -1 -0 -0 -0 -0 -0 0 -0 0 0 0 0 0 0 0 0 0 0 0 0 0 0 0 0
-0 0 0 0 -0 -0 -0 -0 -0 -0 -0 -0 -0 -0 -0 -0 -0 -0 0 0 0 0 0 0 0 0 0 -0 0 0 0 0 0
0 0 0 0 0 -0 -0 -1 -0 -0 -0 -0 -0 -0 -0 -0 -0 -0 -0 0 0 0 0 0 0 0 -0 -0 0 0 0 0 0
0 0 0 0 0 0 0 -1 -0 -0 -0 -0 -0 -0 -0 -0 -0 0 0 0 0 0 0 0 0 0 0 0 0 0 0 0 0
0 0 0 0 0 0 -0 -0 -0 0 0 0 -0 -0 0 0 0 0 0 0 1 1 1 0 0 0 0 0 0 1 0 0 0
0 0 0 0 0 0 0 0 0 0 0 0 1 0 1 1 1 0 0 1 1 1 0 0 0 0 0 0 0 0 0 0 0
0 0 0 0 0 -0 -0 -0 0 0 0 0 0 0 0 0 0 0 1 1 1 0 0 0 0 0 0 1 0 0 0 0 0
0 -0 0 0 -0 0 -0 -0 -0 -0 0 0 0 0 0 0 0 0 1 0 0 0 0 0 0 0 0 0 1 0 0 0 0
0 -0 -0 0 0 0 -0 -0 -0 -0 0 0 0 0 0 0 0 1 1 1 0 0 0 0 0 0 0 0 0 0 0 0 0
-0 -0 2 1 0 -0 -0 -0 -0 -0 0 0 0 0 0 0 0 0 1 0 1 0 0 0 0 0 0 0 0 0 0 0 0
-0 -0 2 0 -1 -0 -0 -0 -0 0 0 0 0 -0 -0 0 0 0 0 0 0 0 0 0 0 0 0 0 0 0 0 0 0
Wind_Speed_500mb
50 61 65 63 62 66 59 57 52 55 43 37 44 42 35 38 34 24 32 33 24 28 22 17 29 28 17 19 19 12 16 18 11
14 39 71 70 63 62 66 55 58 54 45 36 41 42 38 35 36 36 33 31 34 29 28 17 17 14 12 19 18 20 21 18 12
15 23 66 74 80 68 69 58 55 48 49 41 38 41 38 40 36 32 36 28 31 39 18 25 19 41 25 25 19 22 23 22 22
27 22 29 46 64 68 70 64 60 54 48 41 40 44 43 36 36 28 38 30 23 32 41 41 27 24 31 29 25 25 37 28 27
41 21 29 42 74 75 68 66 59 60 58 48 46 45 47 44 33 36 34 30 35 37 31 40 45 42 41 43 40 40 39 44 39
26 15 27 35 71 76 72 74 70 61 64 60 51 51 46 47 40 40 39 43 32 36 38 34 32 34 37 38 36 36 44 41 40
25 25 29 34 56 67 56 60 72 68 62 65 58 39 46 48 45 42 42 39 41 38 39 39 39 37 37 36 38 36 36 38 39
34 35 34 32 36 64 60 59 51 53 56 55 51 51 50 52 36 44 46 48 46 45 45 45 40 45 45 44 40 34 38 41 43
40 42 39 38 33 50 48 48 50 47 50 58 59 61 55 54 46 45 47 47 40 42 43 45 41 40 47 45 47 41 46 45 50
47 47 45 44 44 44 44 46 52 50 56 53 61 50 51 47 48 45 41 38 34 30 32 34 42 42 44 45 42 45 46 49 51
51 48 49 48 47 46 46 43 40 43 43 36 45 46 41 37 36 35 33 32 32 28 30 32 38 38 41 43 45 46 45 43 49
48 48 49 48 47 45 47 50 47 47 45 44 40 40 41 34 31 28 32 34 32 34 34 34 34 37 40 44 43 43 44 45 46
46 47 45 46 47 42 43 55 51 46 44 42 39 35 35 34 28 27 28 31 33 26 21 23 22 26 31 35 36 37 39 38 39
55 56 48 50 49 50 52 45 43 48 42 37 30 25 24 23 22 20 18 16 17 21 24 28 29 34 35 40 44 47 47 42 42
38 60 58 54 50 50 45 46 45 42 37 32 30 30 30 32 30 21 17 16 18 19 25 24 25 27 26 24 24 21 28 27 32
38 10 56 52 54 56 53 48 47 40 35 32 30 28 23 18 17 12 14 14 17 27 22 25 25 28 35 39 27 17 23 25 31
90 75 52 60 62 57 55 48 41 38 34 25 25 21 21 19 19 18 17 20 23 28 31 30 15 19 26 26 24 28 30 29 37
96 92 81 81 71 61 58 52 43 32 28 28 27 22 20 19 19 23 22 23 23 27 31 36 38 38 37 42 34 30 32 38 39
110 76 79 78 75 69 62 52 44 34 28 26 26 23 18 16 13 13 21 20 20 23 28 38 40 38 36 38 42 51 53 55 57
35 84 86 89 80 71 65 58 45 33 27 23 24 23 16 12 13 14 14 17 21 22 30 29 30 33 34 33 37 38 45 50 51
Wind_Direction_500mb
181 190 180 183 187 187 178 179 180 184 198 200 197 205 214 209 200 191 199 211 219 228 239 225 247 229 241 281 239 276 274 272 278
178 182 167 185 191 177 181 182 180 191 201 203 198 203 211 211 213 203 199 215 237 217 260 291 183 212 273 250 256 269 246 268 253
176 173 173 182 182 182 179 179 182 190 204 210 203 196 217 216 214 209 204 209 224 218 230 269 240 234 243 263 239 261 269 262 256
151 169 183 182 173 168 173 181 185 185 199 208 204 193 216 212 220 220 212 212 217 228 238 235 220 237 232 235 246 244 261 256 235
271 156 179 185 164 168 179 185 187 188 195 205 200 201 206 223 219 214 229 232 221 237 247 244 244 243 249 238 242 244 252 260 249
132 168 165 184 169 173 178 184 188 192 195 205 208 200 200 222 228 220 227 238 229 236 247 250 252 255 247 246 247 246 254 254 253
144 166 167 183 164 170 177 172 179 188 200 207 215 200 202 220 234 228 225 240 237 240 238 250 252 252 252 250 253 250 257 250 252
162 160 164 173 179 166 173 177 193 203 196 209 215 204 210 219 244 230 231 229 232 237 240 246 251 253 253 254 255 250 261 262 256
171 157 166 168 181 159 164 170 175 177 191 201 205 209 215 225 231 233 234 241 240 245 248 254 254 255 252 249 251 248 247 257 265
169 164 166 168 175 168 176 180 191 199 207 211 208 204 216 232 224 238 247 240 242 248 261 249 250 252 256 264 262 266 265 262 262
166 168 163 169 167 170 178 181 187 189 190 197 194 204 214 224 227 232 228 233 240 250 260 259 266 259 263 263 268 272 276 266 266
166 164 163 162 164 167 175 174 175 180 185 193 201 208 216 216 225 228 229 241 252 259 264 268 271 274 274 274 274 271 275 273 271
168 162 164 164 160 162 165 157 166 172 179 189 200 200 204 211 225 233 241 250 257 270 276 281 286 283 285 286 288 288 284 270 278
181 155 165 155 157 157 158 165 172 169 177 181 180 182 193 200 214 228 232 244 247 252 261 266 261 265 268 274 279 276 276 276 271
97 152 154 156 157 157 162 161 160 164 164 168 176 190 194 204 214 210 232 245 271 262 257 269 279 289 300 303 311 281 271 274 284
164 3 155 164 158 153 159 164 164 159 166 177 183 189 194 191 199 208 229 242 264 287 291 288 294 284 296 301 292 274 266 266 286
186 218 211 166 159 157 158 163 160 169 177 177 175 181 191 206 221 232 244 259 273 282 286 280 286 292 301 308 319 285 292 290 292
175 201 190 167 162 164 159 166 166 177 172 166 173 190 203 218 233 248 254 268 267 256 268 282 288 285 293 285 276 280 269 268 275
186 198 167 162 162 162 163 162 164 178 169 169 172 186 197 202 224 250 264 269 282 278 275 273 281 284 292 299 283 271 274 277 279
274 195 166 161 163 165 165 169 173 169 160 160 160 156 188 211 246 247 266 270 274 284 291 293 297 295 299 312 307 300 289 287 284
Wind_Speed_850mb
50 61 65 63 62 66 59 57 52 55 43 37 44 42 35 38 34 24 32 33 24 28 22 17 29 28 17 19 19 12 16 18 11
14 39 71 70 63 62 66 55 58 54 45 36 41 42 38 35 36 36 33 31 34 29 28 17 17 14 12 19 18 20 21 18 12
15 23 66 74 80 68 69 58 55 48 49 41 38 41 38 40 36 32 36 28 31 39 18 25 19 41 25 25 19 22 23 22 22
27 22 29 46 64 68 70 64 60 54 48 41 40 44 43 36 36 28 38 30 23 32 41 41 27 24 31 29 25 25 37 28 27
41 21 29 42 74 75 68 66 59 60 58 48 46 45 47 44 33 36 34 30 35 37 31 40 45 42 41 43 40 40 39 44 39
26 15 27 35 71 76 72 74 70 61 64 60 51 51 46 47 40 40 39 43 32 36 38 34 32 34 37 38 36 36 44 41 40
25 25 29 34 56 67 56 60 72 68 62 65 58 39 46 48 45 42 42 39 41 38 39 39 39 37 37 36 38 36 36 38 39
34 35 34 32 36 64 60 59 51 53 56 55 51 51 50 52 36 44 46 48 46 45 45 45 40 45 45 44 40 34 38 41 43
40 42 39 38 33 50 48 48 50 47 50 58 59 61 55 54 46 45 47 47 40 42 43 45 41 40 47 45 47 41 46 45 50
47 47 45 44 44 44 44 46 52 50 56 53 61 50 51 47 48 45 41 38 34 30 32 34 42 42 44 45 42 45 46 49 51
51 48 49 48 47 46 46 43 40 43 43 36 45 46 41 37 36 35 33 32 32 28 30 32 38 38 41 43 45 46 45 43 49
48 48 49 48 47 45 47 50 47 47 45 44 40 40 41 34 31 28 32 34 32 34 34 34 34 37 40 44 43 43 44 45 46
46 47 45 46 47 42 43 55 51 46 44 42 39 35 35 34 28 27 28 31 33 26 21 23 22 26 31 35 36 37 39 38 39
55 56 48 50 49 50 52 45 43 48 42 37 30 25 24 23 22 20 18 16 17 21 24 28 29 34 35 40 44 47 47 42 42
38 60 58 54 50 50 45 46 45 42 37 32 30 30 30 32 30 21 17 16 18 19 25 24 25 27 26 24 24 21 28 27 32
38 10 56 52 54 56 53 48 47 40 35 32 30 28 23 18 17 12 14 14 17 27 22 25 25 28 35 39 27 17 23 25 31
90 75 52 60 62 57 55 48 41 38 34 25 25 21 21 19 19 18 17 20 23 28 31 30 15 19 26 26 24 28 30 29 37
96 92 81 81 71 61 58 52 43 32 28 28 27 22 20 19 19 23 22 23 23 27 31 36 38 38 37 42 34 30 32 38 39
110 76 79 78 75 69 62 52 44 34 28 26 26 23 18 16 13 13 21 20 20 23 28 38 40 38 36 38 42 51 53 55 57
35 84 86 89 80 71 65 58 45 33 27 23 24 23 16 12 13 14 14 17 21 22 30 29 30 33 34 33 37 38 45 50 51
Wind_Direction_850mb
181 190 180 183 187 187 178 179 180 184 198 200 197 205 214 209 200 191 199 211 219 228 239 225 247 229 241 281 239 276 274 272 278
178 182 167 185 191 177 181 182 180 191 201 203 198 203 211 211 213 203 199 215 237 217 260 291 183 212 273 250 256 269 246 268 253
176 173 173 182 182 182 179 179 182 190 204 210 203 196 217 216 214 209 204 209 224 218 230 269 240 234 243 263 239 261 269 262 256
151 169 183 182 173 168 173 181 185 185 199 208 204 193 216 212 220 220 212 212 217 228 238 235 220 237 232 235 246 244 261 256 235
271 156 179 185 164 168 179 185 187 188 195 205 200 201 206 223 219 214 229 232 221 237 247 244 244 243 249 238 242 244 252 260 249
132 168 165 184 169 173 178 184 188 192 195 205 208 200 200 222 228 220 227 238 229 236 247 250 252 255 247 246 247 246 254 254 253
144 166 167 183 164 170 177 172 179 188 200 207 215 200 202 220 234 228 225 240 237 240 238 250 252 252 252 250 253 250 257 250 252
162 160 164 173 179 166 173 177 193 203 196 209 215 204 210 219 244 230 231 229 232 237 240 246 251 253 253 254 255 250 261 262 256
171 157 166 168 181 159 164 170 175 177 191 201 205 209 215 225 231 233 234 241 240 245 248 254 254 255 252 249 251 248 247 257 265
169 164 166 168 175 168 176 180 191 199 207 211 208 204 216 232 224 238 247 240 242 248 261 249 250 252 256 264 262 266 265 262 262
166 168 163 169 167 170 178 181 187 189 190 197 194 204 214 224 227 232 228 233 240 250 260 259 266 259 263 263 268 272 276 266 266
166 164 163 162 164 167 175 174 175 180 185 193 201 208 216 216 225 228 229 241 252 259 264 268 271 274 274 274 274 271 275 273 271
168 162 164 164 160 162 165 157 166 172 179 189 200 200 204 211 225 233 241 250 257 270 276 281 286 283 285 286 288 288 284 270 278
181 155 165 155 157 157 158 165 172 169 177 181 180 182 193 200 214 228 232 244 247 252 261 266 261 265 268 274 279 276 276 276 271
97 152 154 156 157 157 162 161 160 164 164 168 176 190 194 204 214 210 232 245 271 262 257 269 279 289 300 303 311 281 271 274 284
164 3 155 164 158 153 159 164 164 159 166 177 183 189 194 191 199 208 229 242 264 287 291 288 294 284 296 301 292 274 266 266 286
186 218 211 166 159 157 158 163 160 169 177 177 175 181 191 206 221 232 244 259 273 282 286 280 286 292 301 308 319 285 292 290 292
175 201 190 167 162 164 159 166 166 177 172 166 173 190 203 218 233 248 254 268 267 256 268 282 288 285 293 285 276 280 269 268 275
186 198 167 162 162 162 163 162 164 178 169 169 172 186 197 202 224 250 264 269 282 278 275 273 281 284 292 299 283 271 274 277 279
274 195 166 161 163 165 165 169 173 169 160 160 160 156 188 211 246 247 266 270 274 284 291 293 297 295 299 312 307 300 289 287 284